Location: Unspecified
(0.0000°N, 0.0000°E)
Time: 04:34:02
(UTC+00:00)

CZ-6A DEB - Pass Details

Date: 22 October 2025
Orbit: 818 x 870 km, 98.8° (Epoch: 17 November)

Event Time Altitude Azimuth Distance (km) Brightness Sun altitude
Rises 18:50:47 0° 200° (SSW) 3,388 ? -16.3°
Reaches altitude 10° 18:54:06 10° 222° (SW) 2,461 ? -17.1°
Maximum altitude 18:57:13 16° 257° (WSW) 2,099 ? -17.8°
Drops below altitude 10° 19:00:22 10° 292° (WNW) 2,476 ? -18.6°
Sets 19:03:45 0° 314° (NW) 3,419 ? -19.4°
